Location: Cabeza de Tigre
(10.4667°N, 66.7667°W)
Time: 07:58:22
(UTC+00:00)

Daily predictions for brighter satellites

Satellite Brightness Start Highest point End
(mag) Time Altitude Azimuth Time Altitude Azimuth Time Altitude Azimuth
ARIANE 44P R/B 4.4 22:47:19 10° SW 22:51:01 35° SSE 23:05:31 10° E
Cosmos 292 Rocket 3.8 23:08:23 10° SSW 23:13:09 89° WNW 23:17:54 10° NNE
PAYLOAD B 4.3 23:09:03 10° SSE 23:14:32 88° ENE 23:20:02 10° NNW
YAOGAN 1 3.3 23:10:50 10° SE 23:14:43 33° ENE 23:18:34 10° NNE
GOES 2 Rocket 3.5 23:13:06 10° SW 23:17:10 44° SSE 23:21:54 10° ENE
Delta 2 Rocket 3.4 23:14:24 10° WSW 23:17:52 59° NW 23:21:08 10° NE
Cosmos 2084 3.9 23:18:36 10° S 23:22:15 33° ESE 23:25:46 10° NE
Genesis I 3.3 23:19:34 10° NNW 23:23:26 73° WSW 23:27:11 10° SSE
ARIANE 5 R/B 4.0 23:19:26 10° WSW 23:29:16 20° SSW 23:33:01 10° SSE
Hubble Space Telescope 3.2 23:28:51 10° NNW 23:30:52 13° NNE 23:32:52 10° NE
Cosmos 1782 Rocket 3.5 23:27:32 10° N 23:32:00 84° E 23:36:26 10° S
CZ-2C R/B 1.3 23:34:12 10° NW 23:38:19 72° NE 23:41:17 17° ESE
H-2A R/B 3.6 23:35:38 10° ENE 23:38:38 18° E 23:40:05 15° SE
Feng Yun 1-1 Rocket 4.4 23:34:15 10° SSE 23:39:26 50° ENE 23:44:40 10° N
Cosmos 2266 Rocket 4.0 23:35:43 10° N 23:41:47 89° W 23:47:57 10° S
Cosmos 2369 Rocket 3.9 23:41:09 10° NE 23:43:48 13° ENE 23:45:15 12° E
SJ-6B 4.4 23:46:44 15° E 23:47:05 16° ENE 23:49:22 10° NE
USA 267 3.7 23:41:50 10° ENE 23:47:42 36° SE 23:53:35 10° S
OBJECT-B 1.6 23:47:22 24° E 23:47:48 25° ENE 23:50:12 10° NNE
Sich 1 Rocket 4.3 23:44:14 10° NNE 23:48:23 34° E 23:50:58 19° SE
Delta 202 3.9 23:45:03 10° W 23:50:18 67° NNW 23:55:59 10° ENE
Cosmos 1378 Rocket 3.5 23:46:17 10° S 23:50:42 73° E 23:55:06 10° N
H-2A R/B 4.2 23:55:55 15° ENE 23:55:55 15° ENE 23:57:42 10° NE
